DateTimeUTC,F1_A11,F1_S11,BsB_S11,BsG_S11,BsR_S11,BbsB_S11,BbsG_S11,BbsR_S11,BaB_A11,BaG_A11,BaR_A11,Tu_S11,T_S11,Uu_S11,U_S11,P_S11,T1_A11
2021-08-21T17:00:00Z,00000200,20010000,,,,,,,0000.16,0000.14,0000.16,20.0,26.5,10.4,07.0,0677.6,31.1
2021-08-21T17:01:00Z,00000200,20000000,,,,,,,-000.15,-000.17,-000.30,20.0,26.5,10.4,07.0,0677.6,31.1
2021-08-21T17:02:00Z,00000200,20000000,,,,,,,-000.59,-000.49,-000.32,20.0,26.5,10.4,07.0,0677.6,31.1
2021-08-21T17:03:00Z,00000200,60000000,,,,,,,0000.48,0000.42,0000.27,20.0,26.5,10.4,07.0,0677.6,31.1
2021-08-21T17:04:00Z,00000200,40000000,0002.99,0002.59,0001.69,0000.79,0000.37,0000.21,0000.28,0000.03,0000.35,20.1,26.4,09.4,06.4,0678.5,31.1
2021-08-21T17:05:00Z,00000200,00000000,0004.00,0002.73,0001.97,0000.47,0000.26,0000.52,0000.64,0000.67,0000.22,20.2,26.4,09.2,06.3,0678.6,31.1
2021-08-21T17:06:00Z,00000200,00000000,0003.32,0003.16,0002.12,0001.07,0000.62,0000.43,0001.21,0001.11,0000.91,20.2,26.4,09.3,06.4,0678.6,31.1
2021-08-21T17:07:00Z,00000200,00000000,0003.37,0003.06,0001.96,0000.68,0000.35,0000.04,0000.49,0000.69,0000.57,20.2,26.4,09.4,06.5,0678.6,31.1
2021-08-21T17:08:00Z,00000200,00000000,0003.33,0002.97,0002.19,0000.69,0000.52,0000.34,0001.21,0000.73,0000.90,20.2,26.4,09.4,06.5,0678.6,31.1
2021-08-21T17:09:00Z,00000200,00000000,0003.55,0003.24,0002.30,0000.72,0000.62,0000.06,0000.80,0000.83,0000.49,20.2,26.4,09.3,06.5,0678.6,31.1
2021-08-21T17:10:00Z,00000200,00000000,0002.93,0002.87,0002.35,0000.27,0000.43,0000.33,0000.79,0000.75,0000.61,20.2,26.4,09.4,06.5,0678.6,31.1
2021-08-21T17:11:00Z,00000200,00000000,0003.05,0002.77,0001.74,0000.71,0000.50,0000.18,0000.56,0000.69,0000.50,20.2,26.4,09.4,06.5,0678.6,31.1
2021-08-21T17:12:00Z,00000200,00000000,0003.27,0002.46,0002.17,0000.72,0000.52,0000.51,0001.05,0001.01,0000.97,20.2,26.4,09.3,06.5,0678.6,31.1
2021-08-21T17:13:00Z,00000200,00000000,0002.26,0002.78,0001.63,0000.30,0000.88,0000.16,0001.45,0001.25,0000.95,20.2,26.4,09.7,06.7,0678.6,31.1
2021-08-21T17:14:00Z,00000200,00000000,0002.58,0002.48,0001.81,0000.40,0000.48,0000.24,0000.22,0000.19,0000.19,20.3,26.4,09.8,06.8,0678.6,31.2
2021-08-21T17:15:00Z,00000200,00000000,0002.35,0002.49,0001.78,0000.41,0000.69,0000.34,0000.56,0000.39,0000.36,20.3,26.4,09.6,06.7,0678.6,31.2
2021-08-21T17:16:00Z,00000200,00000000,0002.65,0002.57,0001.85,0000.44,0000.94,0000.30,0000.72,0001.06,0000.61,20.3,26.4,09.5,06.6,0678.6,31.2
2021-08-21T17:17:00Z,00000200,00000000,0003.12,0002.60,0001.82,0000.71,0000.49,0000.18,0000.73,0000.41,0000.34,20.3,26.4,09.6,06.7,0678.6,31.1
2021-08-21T17:18:00Z,00000200,00000000,0002.98,0002.49,0001.80,0000.52,0000.24,0000.10,0000.89,0000.76,0000.76,20.3,26.4,09.8,06.8,0678.6,31.1
2021-08-21T17:19:00Z,00000200,00000000,0002.35,0002.51,0001.74,0000.59,0000.10,0000.44,0000.84,0000.81,0000.34,20.3,26.4,09.7,06.7,0678.5,31.1
2021-08-21T17:20:00Z,00000200,00000000,0003.00,0002.42,0001.61,0000.73,0000.23,0000.11,0000.36,0000.45,0000.69,20.3,26.4,09.5,06.6,0678.6,31.1
2021-08-21T17:21:00Z,00000200,00000000,0002.56,0002.30,0001.55,0000.64,0000.76,0000.10,0000.89,0001.02,0000.61,20.3,26.4,09.5,06.5,0678.6,31.1
2021-08-21T17:22:00Z,00000200,00000000,0002.66,0002.77,0001.87,0000.75,0000.32,0000.55,0000.60,0000.46,0000.24,20.3,26.4,09.6,06.6,0678.6,31.1
2021-08-21T17:23:00Z,00000200,00000000,0002.80,0002.42,0001.70,0000.68,0000.37,0000.10,0000.78,0000.72,0000.83,20.3,26.4,09.7,06.7,0678.6,31.1
2021-08-21T17:24:00Z,00000200,00000000,0002.52,0002.13,0001.68,0000.28,0000.37,0000.25,0000.35,0000.43,0000.47,20.3,26.4,09.6,06.6,0678.6,31.1
2021-08-21T17:25:00Z,00000200,00000000,0003.27,0002.52,0001.50,0000.78,0000.62,0000.07,0001.00,0000.70,0000.66,20.3,26.4,09.5,06.5,0678.6,31.1
2021-08-21T17:26:00Z,00000200,00000000,0002.16,0002.23,0001.52,0000.98,0000.43,0000.41,0000.42,0000.67,0000.50,20.3,26.4,09.7,06.7,0678.6,31.1
2021-08-21T17:27:00Z,00000200,00000000,0002.08,0002.16,0001.70,0000.92,0000.43,0000.20,0000.79,0000.27,0000.14,20.3,26.4,09.5,06.6,0678.6,31.1
2021-08-21T17:28:00Z,00000200,00000000,0002.86,0002.07,0001.44,0000.70,0000.38,-000.20,0000.41,0000.91,0000.66,20.3,26.4,09.5,06.5,0678.6,31.1
2021-08-21T17:29:00Z,00000200,00000000,0003.00,0002.23,0001.37,0000.15,0000.44,0000.04,0000.82,0000.54,0000.31,20.3,26.4,09.4,06.5,0678.6,31.1
2021-08-21T17:30:00Z,00000200,00000000,0002.88,0002.39,0001.80,0000.99,0000.06,0000.25,0000.84,0000.92,0000.71,20.3,26.4,09.6,06.6,0678.6,31.1
2021-08-21T17:31:00Z,00000200,00000000,0002.98,0002.12,0001.61,0000.64,0000.54,0000.20,0001.03,0000.61,0000.37,20.3,26.4,09.6,06.7,0678.6,31.1
2021-08-21T17:32:00Z,00000200,00000000,0003.04,0002.60,0001.71,0001.00,0000.33,0000.26,0000.31,0000.38,0000.60,20.3,26.4,09.7,06.7,0678.6,31.1
2021-08-21T17:33:00Z,00000200,00000000,0002.13,0002.47,0001.62,0001.09,0000.56,0000.15,0000.72,0000.61,0000.58,20.3,26.4,09.7,06.7,0678.6,31.1
2021-08-21T17:34:00Z,00000200,00000000,0003.07,0002.08,0001.49,0000.55,0000.34,-000.14,0000.80,0001.11,0000.69,20.3,26.5,09.7,06.7,0678.6,31.1
2021-08-21T17:35:00Z,00000200,00000000,0001.64,0001.81,0001.10,0000.08,0000.21,-000.14,0000.89,0000.64,0000.67,20.3,26.5,09.9,06.9,0678.6,31.1
2021-08-21T17:36:00Z,00000200,00000000,0002.68,0001.57,0001.27,0000.74,0000.43,0000.16,0000.31,0000.50,-000.05,20.3,26.4,10.1,07.0,0678.6,31.1
2021-08-21T17:37:00Z,00000200,00000000,0001.98,0001.98,0001.00,0000.90,0000.55,0000.07,0000.41,0000.44,0000.53,20.3,26.5,10.2,07.1,0678.6,31.1
2021-08-21T17:38:00Z,00000200,00000000,0002.31,0001.76,0001.62,0000.59,0000.46,0000.30,0000.64,0000.37,0000.15,20.4,26.5,10.1,07.0,0678.6,31.1
2021-08-21T17:39:00Z,00000200,00000000,0001.96,0001.80,0001.55,0001.09,0000.41,0000.13,0000.58,0000.65,0000.17,20.4,26.5,09.9,06.8,0678.6,31.1
2021-08-21T17:40:00Z,00000200,00000000,0002.29,0001.92,0000.77,0001.10,0000.34,-000.10,0000.06,0000.04,0000.86,20.4,26.5,09.9,06.8,0678.7,31.2
2021-08-21T17:41:00Z,00000200,00000000,0001.98,0002.03,0001.40,0000.71,0000.37,-000.05,0000.76,0000.47,0000.05,20.4,26.5,09.8,06.8,0678.7,31.2
2021-08-21T17:42:00Z,00000200,00000000,0002.04,0001.97,0001.20,0000.22,0000.04,0000.12,0000.21,0000.54,0000.36,20.4,26.5,09.8,06.8,0678.7,31.2
2021-08-21T17:43:00Z,00000200,00000000,0002.02,0002.12,0001.04,0000.60,0000.36,-000.22,0000.34,0000.54,0000.35,20.4,26.5,09.8,06.8,0678.7,31.1
2021-08-21T17:44:00Z,00000200,00000000,0001.77,0002.02,0001.14,0000.64,0000.38,0000.07,0000.55,0000.13,0000.54,20.4,26.5,09.8,06.7,0678.7,31.1
2021-08-21T17:45:00Z,00000200,00000000,0001.90,0002.32,0001.34,0001.33,0000.32,0000.15,0000.90,0000.64,0000.29,20.4,26.5,09.8,06.8,0678.7,31.1
2021-08-21T17:46:00Z,00000200,00000000,0002.73,0002.22,0000.83,0000.26,0000.43,0000.04,0000.46,0000.34,0000.43,20.4,26.5,09.7,06.7,0678.7,31.1
2021-08-21T17:47:00Z,00000200,00000000,0001.81,0002.05,0000.97,0000.91,0000.41,0000.12,0000.47,0000.77,0000.40,20.4,26.5,09.7,06.7,0678.7,31.1
2021-08-21T17:48:00Z,00000200,00000000,0001.91,0001.65,0001.27,0000.37,0000.24,0000.12,0000.82,0000.34,0000.43,20.4,26.5,09.7,06.7,0678.7,31.1
2021-08-21T17:49:00Z,00000200,00000000,0002.30,0001.86,0001.45,0000.74,0000.52,0000.20,0000.32,0000.71,0000.30,20.3,26.5,09.7,06.7,0678.7,31.1
2021-08-21T17:50:00Z,00000200,00000000,0001.85,0001.94,0001.48,0000.65,0000.41,0000.18,0000.65,0000.53,0000.44,20.3,26.5,09.7,06.7,0678.7,31.1
2021-08-21T17:51:00Z,00000200,00000000,0002.39,0001.97,0001.37,0000.48,0000.45,0000.13,0000.38,0000.41,0000.29,20.4,26.5,09.7,06.7,0678.7,31.1
2021-08-21T17:52:00Z,00000200,00000000,0002.63,0002.00,0001.40,0000.57,0000.56,0000.10,0000.70,0000.64,0000.54,20.4,26.5,09.6,06.6,0678.7,31.1
2021-08-21T17:53:00Z,00000200,00000000,0001.77,0002.02,0001.54,0000.33,-000.02,0000.11,0000.21,0000.57,0000.60,20.4,26.5,09.5,06.6,0678.7,31.1
2021-08-21T17:54:00Z,00000200,00000000,0002.32,0002.19,0001.30,0000.96,0000.16,0000.36,0000.91,0000.49,0000.43,20.4,26.5,09.6,06.7,0678.7,31.1
2021-08-21T17:55:00Z,00000200,00000000,0002.86,0002.13,0001.59,0000.36,0000.31,-000.06,0000.52,0000.13,0000.32,20.4,26.5,09.7,06.7,0678.7,31.1
2021-08-21T17:56:00Z,00000200,00000000,0002.19,0002.19,0001.82,0000.54,0000.27,0000.17,0000.51,0000.63,0000.76,20.4,26.5,09.6,06.7,0678.7,31.1
2021-08-21T17:57:00Z,00000200,40000000,,,,,,,0000.61,0000.28,0000.39,20.4,26.5,09.7,06.7,0678.7,31.1
2021-08-21T17:58:00Z,00000200,60000000,,,,,,,-000.36,-000.20,-000.58,20.1,26.6,09.6,06.5,0677.7,31.1
2021-08-21T17:59:00Z,00000200,20000000,,,,,,,0000.15,0000.09,0000.02,20.1,26.7,09.7,06.5,0677.7,31.1
